Date String (YYYY-MM-DD hh:mm:ss) UTC,Instrument flags,absolute air pressure of the measurement (hPa),sample flow rate (lpm),inlet stack bypass flow (lpm),air temperature of the measurement (°C),ambient temperature measured by the external sensor (°C),aerosol sample conditioner tube jacket temperature (°C),OPC LED temperature (°C),internal box temperature (°C),relative humidity of the measurement (%),span deviation,mass concentration of particles derived from Lorenz-Mie calculation of OPC scattering (μg/m³),mass concentration of particles derived from Lorenz-Mie calculation of OPC scattering (μg/m³),mass concentration of particles derived from Lorenz-Mie calculation of OPC scattering (μg/m³)
DateTimeUTC,F1_M11,P_M11,Q1_M11,Q2_M11,T1_M11,T2_M11,T3_M11,T4_M11,T5_M11,U1_M11,ZSPAN_M11,X2_M11,X0_M11,X1_M11
2024-03-19 07:00:00,SystemResetWarning,0830.7,5.00,000.00,020.2,019.4,000.0,028.8,021.9,14.6,0000.0,0001.52,0004.23,0000.80
2024-03-19 07:01:00,SystemResetWarning,0830.7,5.01,000.00,020.2,019.4,000.0,028.8,021.9,14.7,0000.0,0001.59,0004.19,0000.82
2024-03-19 07:02:00,SystemResetWarning,0830.7,5.01,000.00,020.2,019.4,000.0,028.8,021.9,14.9,0000.0,0001.61,0004.22,0000.82
2024-03-19 07:03:00,SystemResetWarning,0830.6,5.01,000.00,020.2,019.4,000.0,028.8,021.9,14.7,0000.0,0001.63,0004.26,0000.82
2024-03-19 07:04:00,SystemResetWarning,0830.7,5.00,000.00,020.1,019.4,000.0,028.8,021.9,14.7,0000.0,0001.63,0004.30,0000.82
2024-03-19 07:05:00,SystemResetWarning,0830.7,4.99,000.00,020.1,019.3,000.0,028.7,021.9,14.7,0000.0,0001.66,0004.46,0000.81
2024-03-19 07:06:00,SystemResetWarning,0830.7,4.99,000.00,020.1,019.3,000.0,028.7,021.9,14.5,0000.0,0001.66,0004.43,0000.82
2024-03-19 07:07:00,SystemResetWarning,0830.6,5.01,000.00,020.1,019.3,000.0,028.7,021.9,14.5,0000.0,0001.67,0004.58,0000.82
2024-03-19 07:08:00,SystemResetWarning,0830.7,5.00,000.00,020.1,019.3,000.0,028.7,021.8,14.5,0000.0,0001.71,0004.59,0000.82
2024-03-19 07:09:00,SystemResetWarning,0830.7,5.01,000.00,020.1,019.3,000.0,028.7,021.8,14.5,0000.0,0001.71,0004.49,0000.83
2024-03-19 07:10:00,SystemResetWarning,0830.7,5.01,000.00,020.1,019.3,000.0,028.7,021.8,14.4,0000.0,0001.73,0004.03,0000.83
2024-03-19 07:11:00,SystemResetWarning,0830.7,5.00,000.00,020.1,019.3,000.0,028.7,021.8,14.4,0000.0,0001.76,0004.10,0000.82
2024-03-19 07:12:00,SystemResetWarning,0830.7,5.00,000.00,020.1,019.3,000.0,028.7,021.8,14.3,0000.0,0001.79,0004.18,0000.81
2024-03-19 07:13:00,SystemResetWarning,0830.7,5.00,000.00,020.1,019.3,000.0,028.7,021.8,14.5,0000.0,0001.78,0004.19,0000.81
2024-03-19 07:14:00,SystemResetWarning,0830.7,5.00,000.00,020.0,019.3,000.0,028.6,021.8,14.5,0000.0,0001.76,0004.10,0000.82
2024-03-19 07:15:00,SystemResetWarning,0830.7,4.99,000.00,020.0,019.2,000.0,028.6,021.8,14.7,0000.0,0001.78,0004.10,0000.82
2024-03-19 07:16:00,SystemResetWarning,0830.7,5.00,000.00,020.0,019.2,000.0,028.6,021.8,14.9,0000.0,0001.75,0003.98,0000.82
2024-03-19 07:17:00,SystemResetWarning,0830.7,5.01,000.00,020.0,019.2,000.0,028.6,021.8,14.7,0000.0,0001.72,0003.88,0000.81
2024-03-19 07:18:00,SystemResetWarning,0830.7,5.01,000.00,020.0,019.2,000.0,028.6,021.7,14.6,0000.0,0001.72,0004.02,0000.82
2024-03-19 07:19:00,SystemResetWarning,0830.7,5.00,000.00,020.0,019.2,000.0,028.6,021.7,14.4,0000.0,0001.69,0004.16,0000.81
2024-03-19 07:20:00,SystemResetWarning,0830.7,5.00,000.00,020.0,019.2,000.0,028.6,021.7,14.6,0000.0,0001.70,0004.25,0000.80
2024-03-19 07:21:00,SystemResetWarning,0830.7,4.99,000.00,020.0,019.2,000.0,028.6,021.7,14.3,0000.0,0001.76,0004.35,0000.80
2024-03-19 07:22:00,SystemResetWarning,0830.7,4.99,000.00,020.0,019.2,000.0,028.6,021.7,14.3,0000.0,0001.83,0004.58,0000.79
2024-03-19 07:23:00,SystemResetWarning,0830.7,5.00,000.00,020.0,019.2,000.0,028.5,021.7,14.5,0000.0,0001.78,0004.73,0000.80
2024-03-19 07:24:00,SystemResetWarning,0830.7,5.00,000.00,019.9,019.2,000.0,028.5,021.7,14.6,0000.0,0001.78,0005.62,0000.80
2024-03-19 07:25:00,SystemResetWarning,0830.7,5.00,000.00,019.9,019.2,000.0,028.5,021.7,14.6,0000.0,0001.79,0005.83,0000.80
2024-03-19 07:26:00,SystemResetWarning,0830.7,5.01,000.00,019.9,019.2,000.0,028.5,021.7,14.7,0000.0,0001.79,0005.87,0000.81
2024-03-19 07:27:00,SystemResetWarning,0830.7,5.01,000.00,019.9,019.2,000.0,028.5,021.7,14.5,0000.0,0001.83,0006.02,0000.81
2024-03-19 07:28:00,SystemResetWarning,0830.7,5.00,000.00,019.9,019.1,000.0,028.5,021.7,14.8,0000.0,0001.85,0006.04,0000.82
2024-03-19 07:29:00,SystemResetWarning,0830.7,5.00,000.00,019.9,019.1,000.0,028.5,021.7,14.4,0000.0,0001.88,0006.49,0000.82
2024-03-19 07:30:00,SystemResetWarning,0830.7,5.01,000.00,019.9,019.1,000.0,028.5,021.6,15.0,0000.0,0001.91,0007.39,0000.82
2024-03-19 07:31:00,SystemResetWarning,0830.7,5.00,000.00,019.9,019.1,000.0,028.5,021.6,14.9,0000.0,0001.92,0007.41,0000.83
2024-03-19 07:32:00,SystemResetWarning,0830.7,4.99,000.00,019.9,019.1,000.0,028.5,021.6,14.9,0000.0,0001.93,0007.41,0000.84
2024-03-19 07:33:00,SystemResetWarning,0830.7,4.99,000.00,019.9,019.1,000.0,028.4,021.6,14.5,0000.0,0001.88,0007.34,0000.83
2024-03-19 07:34:00,SystemResetWarning,0830.7,5.00,000.00,019.9,019.1,000.0,028.4,021.6,15.0,0000.0,0001.89,0007.28,0000.84
2024-03-19 07:35:00,SystemResetWarning,0830.7,5.00,000.00,019.8,019.1,000.0,028.4,021.6,14.9,0000.0,0001.97,0006.50,0000.84
2024-03-19 07:36:00,SystemResetWarning,0830.7,5.01,000.00,019.8,019.1,000.0,028.4,021.6,15.0,0000.0,0002.02,0006.33,0000.84
2024-03-19 07:37:00,SystemResetWarning,0830.7,5.00,000.00,019.8,019.1,000.0,028.4,021.6,14.8,0000.0,0002.00,0006.25,0000.84
2024-03-19 07:38:00,SystemResetWarning,0830.7,4.99,000.00,019.8,019.1,000.0,028.4,021.6,14.7,0000.0,0001.99,0006.20,0000.84
2024-03-19 07:39:00,SystemResetWarning,0830.7,5.00,000.00,019.8,019.1,000.0,028.4,021.6,14.5,0000.0,0002.03,0006.26,0000.83
2024-03-19 07:40:00,SystemResetWarning,0830.7,4.99,000.00,019.8,019.0,000.0,028.4,021.5,14.9,0000.0,0002.03,0006.25,0000.84
2024-03-19 07:41:00,SystemResetWarning,0830.7,5.00,000.00,019.8,019.0,000.0,028.4,021.5,15.3,0000.0,0002.03,0005.09,0000.84
2024-03-19 07:42:00,SystemResetWarning,0830.7,5.00,000.00,019.8,019.0,000.0,028.4,021.5,14.8,0000.0,0002.05,0004.71,0000.84
2024-03-19 07:43:00,SystemResetWarning,0830.7,5.00,000.00,019.8,019.0,000.0,028.4,021.5,14.7,0000.0,0002.04,0004.66,0000.84
2024-03-19 07:44:00,SystemResetWarning,0830.7,5.00,000.00,019.8,019.0,000.0,028.3,021.5,14.8,0000.0,0002.07,0004.81,0000.85
2024-03-19 07:45:00,SystemResetWarning,0830.7,5.00,000.00,019.8,019.0,000.0,028.3,021.5,14.6,0000.0,0002.06,0004.81,0000.85
2024-03-19 07:46:00,SystemResetWarning,0830.7,5.01,000.00,019.7,019.0,000.0,028.3,021.5,14.6,0000.0,0002.03,0004.69,0000.85
2024-03-19 07:47:00,SystemResetWarning,0830.7,5.00,000.00,019.7,019.0,000.0,028.3,021.5,14.7,0000.0,0001.97,0004.52,0000.85
2024-03-19 07:48:00,SystemResetWarning,0830.7,5.01,000.00,019.7,019.0,000.0,028.3,021.5,14.7,0000.0,0001.94,0004.37,0000.85
2024-03-19 07:49:00,SystemResetWarning,0830.7,5.01,000.00,019.7,019.0,000.0,028.3,021.5,14.7,0000.0,0001.97,0004.46,0000.85
2024-03-19 07:50:00,SystemResetWarning,0830.7,5.00,000.00,019.7,019.0,000.0,028.3,021.5,14.8,0000.0,0001.93,0004.41,0000.86
2024-03-19 07:51:00,SystemResetWarning,0830.7,5.01,000.00,019.7,019.0,000.0,028.3,021.5,14.8,0000.0,0001.93,0005.39,0000.85
2024-03-19 07:52:00,SystemResetWarning,0830.7,4.99,000.00,019.7,018.9,000.0,028.3,021.4,14.7,0000.0,0001.89,0005.60,0000.84
2024-03-19 07:53:00,SystemResetWarning,0830.7,4.99,000.00,019.7,018.9,000.0,028.3,021.4,14.6,0000.0,0001.88,0006.32,0000.84
2024-03-19 07:54:00,SystemResetWarning,0830.7,5.01,000.00,019.7,018.9,000.0,028.2,021.4,14.7,0000.0,0001.87,0006.63,0000.85
2024-03-19 07:55:00,SystemResetWarning,0830.6,5.01,000.00,019.7,018.9,000.0,028.2,021.4,14.7,0000.0,0001.88,0006.64,0000.85
2024-03-19 07:56:00,SystemResetWarning,0830.6,4.99,000.00,019.6,018.9,000.0,028.2,021.4,14.8,0000.0,0001.90,0006.80,0000.84
2024-03-19 07:57:00,SystemResetWarning,0830.7,4.99,000.00,019.6,018.9,000.0,028.2,021.4,14.7,0000.0,0001.86,0006.80,0000.84
2024-03-19 07:58:00,SystemResetWarning,0830.7,5.01,000.00,019.6,018.9,000.0,028.2,021.3,14.6,0000.0,0001.95,0007.09,0000.84
2024-03-19 07:59:00,SystemResetWarning,0830.6,5.00,000.00,019.6,018.9,000.0,028.2,021.3,14.6,0000.0,0002.02,0007.32,0000.84
